ATLAS 5 CENTAUR DEB, 46637

Orbit data source: Space-Track

ATLAS 5 CENTAUR DEB, 46637 is space debris in HEO originally from a launch on Wed, 17 Sep 2014 UTC launched from the Air Force Eastern Test Range (AFETR). Debris objects in space refer to the collection of defunct objects orbiting the Earth. Examples of debris include non-operational satellites, rocket bodies, and fragments generated from explosions, collisions, or faulty payload assembly.

Loading next visibility...
Identifier
46637, 2014-055CM
Orbit
HEO
Country
Flag of USUS
Related business
Flag of USUnited Launch Alliance/Lockheed Martin (US)
Manufacturer
Unknown
Mission
Spacecraft
Bus & Motor
Unknown
Mass
Unknown
Launch date (UTC)
2014-09-17 (11 years ago)
Launch vehicle
Unknown
Launch site
Air Force Eastern Test Range (AFETR)
Object type
Payload
Rocket body
Debris
Shape & HBR
Unknown shape, 1.1 m
Radar Cross Section
Small (<0.1 m²)

Expand to show TLE details & history
Last TLE update: 2 days ago

TLE from 2 days ago
0 ATLAS 5 CENTAUR DEB
1 46637U 14055CM  25347.59203991 -.00000164  00000-0  00000-0 0  9992
2 46637  21.0666 107.1143 5066195 231.0088  71.8323  1.94676113 36865
Epoch: 2025-12-13T14:12Z
TLE epoch observation values (Epoch: 2025-12-13T14:12:32.248Z)
Latitude
0.00001°
Longitude
171.39011°
Altitude
23,192.41 km
Speed
3.5 km/s
True Right ascension
07h 08m 09s
True Declination
0° 00' 00"
Sunlit
Object was in daylight at epoch
Visualization orbit readout
Latitude
Unknown
Longitude
Unknown
Altitude
Unknown
Speed
Unknown
Apparent Right ascension
Unknown
Apparent Declination
Unknown
Sunlit
N/A
Visualization observer readout
Local Sidereal Time
02:42:29
Azimuth
Unknown
Elevation
Unknown
Doppler factor
Unknown
Orbital elements
Apogee altitude
34,444.09 km
Perigee altitude
6,990.129 km
Semi-major axis
27,095.247 km
Eccentricity
0.50662
Inclination
21.0666°
RAAN
107.1143°
Arg. of periapsis
231.0088°
True anomaly
129.00523°
Mean anomaly
71.8323°
Eccentric anomaly
100.38404°
Mean motion
0.48664 °/min
Orbital period
739.77 mins
BSTAR
0
Loading maneuver chart data...
Computing Atmospheric mass density...

Documentation

Showing up to 5 results
|